[[{"header":{"parameterUnit":"m.s-1","parameterCategory":2,"la1":30.2992,"la2":30.254,"lo1":-89.0895,"lo2":-89.0443,"dy":0.0025,"dx":0.0025,"nx":19,"ny":19,"refTime":"2026-03-28T09:00:00:Z","depth":"0","parameterNumber":2,"parameterNumberName":"U-component_of_CURRENTS"},"data":[0,0,0,-0.1502,-0.1502,-0.1524,-0.1524,-0.1566,-0.1566,0,0,0,0,0,0,0,0,0,0,0,-0.1489,-0.1489,-0.1502,-0.1502,-0.1524,-0.1524,-0.1566,-0.1566,0,0,0,0,0,0,0,0,0,0,0,-0.1489,-0.1489,-0.1489,-0.1502,-0.1524,-0.1524,-0.1566,-0.1545,0,0,0,0,0,0,0,0,0,0,-0.1522,-0.1506,-0.1489,-0.1489,-0.1502,-0.1524,-0.1524,-0.1544,-0.1547,-0.156,0,-0.1561,0,-0.1568,-0.1569,-0.157,0,0,0,-0.1501,-0.1504,-0.1514,-0.1489,-0.1503,-0.1524,-0.1514,-0.1546,-0.1548,-0.1563,-0.1561,-0.1563,-0.1569,-0.157,-0.157,-0.1639,-0.164,0,0,-0.15,-0.149,-0.1512,-0.1516,-0.1505,-0.1513,-0.1515,-0.1547,-0.1546,-0.1561,-0.1564,-0.1569,-0.157,-0.157,-0.1639,-0.1639,0,0,0,-0.1497,-0.1489,-0.1499,-0.1514,-0.1519,-0.1514,-0.1516,-0.1544,-0.1549,-0.1564,-0.157,-0.157,-0.1571,-0.1638,-0.1639,-0.1653,0,0,0,-0.1496,-0.1488,-0.1498,-0.1492,-0.1518,-0.153,-0.1512,-0.1546,-0.155,-0.157,-0.157,-0.1571,-0.1638,-0.1639,-0.1652,-0.1651,0,0,0,-0.1489,-0.1487,-0.149,-0.1492,-0.1503,-0.1529,-0.1535,-0.1547,-0.1554,-0.157,-0.1572,-0.1638,-0.1639,-0.1651,-0.1649,-0.1665,0,0,0,-0.1479,-0.1487,-0.1489,-0.1505,-0.1503,-0.1539,-0.1535,-0.1558,-0.1572,-0.1571,-0.1638,-0.1639,-0.165,-0.1648,-0.1663,-0.1593,-0.1592,0,0,-0.1487,-0.1488,-0.15,-0.1503,-0.1537,-0.1536,-0.1577,-0.1589,-0.1593,-0.1627,-0.1628,-0.1652,-0.1649,-0.1664,-0.1648,-0.1645,0,0,0,-0.1503,-0.1506,-0.1519,-0.1537,-0.1563,-0.1587,-0.1602,-0.1614,-0.1641,-0.1606,-0.1668,-0.1666,-0.1674,-0.163,-0.1629,-0.1609,-0.1643,-0.1643,-0.1643,-0.1489,-0.1513,-0.1533,-0.1563,-0.1589,-0.1626,-0.1647,-0.1667,-0.1669,-0.1685,-0.1689,-0.1725,-0.1679,-0.1677,-0.1658,-0.1706,-0.1706,-0.1706,-0.1706,-0.1494,-0.1499,-0.1536,-0.1561,-0.16,-0.1633,-0.1688,-0.1696,-0.1732,-0.1723,-0.1731,-0.1662,-0.1675,-0.1656,-0.1707,-0.1707,-0.1707,-0.1707,-0.1707,-0.147,-0.1475,-0.1496,-0.1536,-0.1579,-0.163,-0.1677,-0.1718,-0.1737,-0.1752,-0.1704,-0.1702,-0.1674,-0.1757,-0.1758,-0.1758,-0.1758,-0.1758,-0.1758,-0.1427,-0.1452,-0.146,-0.1509,-0.1531,-0.1585,-0.1671,-0.1699,-0.1716,-0.1712,-0.1712,-0.1683,-0.174,-0.1726,-0.1759,-0.1759,-0.1759,-0.1759,-0.1758,-0.1381,-0.1397,-0.1406,-0.1423,-0.1481,-0.1504,-0.1607,-0.1645,-0.1684,-0.167,-0.1637,-0.1692,-0.1679,-0.1679,-0.1663,-0.1678,-0.1678,-0.1678,-0.1678,-0.1338,-0.1352,-0.1343,-0.1358,-0.1401,-0.146,-0.1471,-0.1524,-0.1563,-0.1552,-0.1596,-0.1565,-0.1569,-0.1549,-0.1552,-0.1533,-0.1516,-0.1516,-0.1515,-0.1299,-0.1306,-0.1276,-0.1302,-0.1349,-0.1387,-0.1365,-0.1414,-0.1474,-0.1511,-0.1587,-0.1594,-0.1552,-0.156,-0.153,-0.1536,-0.1507,0,0]},{"header":{"parameterUnit":"m.s-1","parameterCategory":2,"la1":30.2992,"la2":30.254,"lo1":-89.0895,"lo2":-89.0443,"dy":0.0025,"dx":0.0025,"nx":19,"ny":19,"refTime":"2026-03-28T09:00:00:Z","depth":"0","parameterNumber":3,"parameterNumberName":"V-component_of_CURRENTS"},"data":[0,0,0,-0.0401,-0.04,-0.0372,-0.0371,-0.0316,-0.0316,0,0,0,0,0,0,0,0,0,0,0,-0.0409,-0.0409,-0.0401,-0.04,-0.0372,-0.0371,-0.0316,-0.0316,0,0,0,0,0,0,0,0,0,0,0,-0.0409,-0.0409,-0.0409,-0.04,-0.0372,-0.0371,-0.0316,-0.0341,0,0,0,0,0,0,0,0,0,0,-0.037,-0.0383,-0.0409,-0.0409,-0.04,-0.0372,-0.0371,-0.0342,-0.0339,-0.0327,0,-0.0326,0,-0.0324,-0.0312,-0.0312,0,0,0,-0.0392,-0.0386,-0.038,-0.0409,-0.04,-0.0372,-0.0382,-0.0341,-0.0337,-0.0323,-0.0325,-0.0324,-0.0323,-0.0312,-0.0312,-0.0283,-0.0283,0,0,-0.0394,-0.04,-0.0382,-0.0378,-0.0397,-0.0383,-0.0382,-0.0339,-0.0336,-0.0325,-0.0322,-0.0322,-0.0312,-0.0311,-0.0283,-0.0283,0,0,0,-0.0404,-0.0401,-0.0396,-0.038,-0.0378,-0.0383,-0.0381,-0.0338,-0.0337,-0.0322,-0.0321,-0.0311,-0.0311,-0.0283,-0.0283,-0.0333,0,0,0,-0.0405,-0.0407,-0.0397,-0.0399,-0.0379,-0.0361,-0.0381,-0.034,-0.0335,-0.0321,-0.0311,-0.031,-0.0283,-0.0283,-0.0331,-0.0353,0,0,0,-0.0409,-0.0408,-0.0406,-0.04,-0.0391,-0.0361,-0.0357,-0.0338,-0.0335,-0.0312,-0.031,-0.0283,-0.0283,-0.033,-0.0351,-0.0337,0,0,0,-0.0413,-0.0425,-0.0407,-0.0421,-0.0392,-0.0393,-0.0358,-0.035,-0.0336,-0.0311,-0.0283,-0.0283,-0.0329,-0.0349,-0.0336,-0.0329,-0.0333,0,0,-0.0434,-0.0428,-0.0438,-0.0421,-0.0438,-0.0396,-0.0402,-0.0365,-0.0331,-0.0294,-0.0293,-0.0332,-0.0351,-0.0336,-0.0337,-0.0341,0,0,0,-0.0449,-0.0458,-0.0459,-0.0463,-0.0452,-0.044,-0.0402,-0.0377,-0.0343,-0.0323,-0.032,-0.0331,-0.032,-0.0314,-0.0317,-0.0226,-0.0284,-0.0284,-0.0284,-0.0481,-0.0483,-0.0505,-0.0504,-0.0499,-0.0467,-0.0448,-0.0404,-0.037,-0.0359,-0.0363,-0.0376,-0.0371,-0.0373,-0.028,-0.0353,-0.0353,-0.0353,-0.0353,-0.0526,-0.0545,-0.0542,-0.0564,-0.0546,-0.0541,-0.0489,-0.0458,-0.0413,-0.039,-0.0377,-0.0357,-0.0379,-0.0279,-0.0356,-0.0356,-0.0355,-0.0355,-0.0355,-0.0554,-0.0566,-0.0576,-0.0605,-0.0613,-0.0587,-0.0581,-0.0528,-0.0458,-0.045,-0.0407,-0.0406,-0.0322,-0.0435,-0.0435,-0.0435,-0.0435,-0.0435,-0.0435,-0.0579,-0.0593,-0.0628,-0.065,-0.0671,-0.0676,-0.0631,-0.0594,-0.051,-0.0455,-0.0454,-0.0314,-0.04,-0.0402,-0.0436,-0.0436,-0.0435,-0.0435,-0.0435,-0.0619,-0.0624,-0.068,-0.0708,-0.0755,-0.078,-0.0728,-0.0634,-0.0567,-0.0516,-0.0334,-0.0441,-0.0417,-0.0413,-0.0414,-0.0449,-0.0449,-0.0449,-0.0449,-0.0643,-0.0651,-0.0728,-0.0785,-0.0831,-0.0831,-0.0813,-0.0701,-0.0469,-0.0349,-0.0289,-0.0265,-0.0268,-0.0233,-0.0234,-0.0229,-0.0217,-0.0216,-0.0216,-0.0669,-0.0691,-0.0751,-0.0809,-0.087,-0.0881,-0.0873,-0.076,-0.0408,-0.0196,-0.0163,-0.0173,-0.0128,-0.0141,-0.0077,-0.0085,-0.0076,0,0]}],[{"header":{"parameterUnit":"m.s-1","parameterCategory":2,"la1":30.2992,"la2":30.254,"lo1":-89.0895,"lo2":-89.0443,"dy":0.0025,"dx":0.0025,"nx":19,"ny":19,"refTime":"2026-03-28T09:00:00:Z","depth":"2","parameterNumber":2,"parameterNumberName":"U-component_of_CURRENTS"},"data":[0,0,0,-0.1414,-0.1415,-0.1441,-0.1441,-0.1483,-0.1483,0,0,0,0,0,0,0,0,0,0,0,-0.1401,-0.1401,-0.1414,-0.1415,-0.1441,-0.1441,-0.1483,-0.1483,0,0,0,0,0,0,0,0,0,0,0,-0.1401,-0.1401,-0.1401,-0.1415,-0.1441,-0.1441,-0.1483,-0.1461,0,0,0,0,0,0,0,0,0,0,-0.1434,-0.1419,-0.1401,-0.1401,-0.1415,-0.144,-0.1441,-0.146,-0.1462,-0.1474,0,-0.1476,0,-0.1483,-0.1486,-0.1487,0,0,0,-0.1414,-0.1416,-0.1427,-0.1401,-0.1415,-0.144,-0.1429,-0.1461,-0.1464,-0.1477,-0.1476,-0.1478,-0.1484,-0.1487,-0.1487,-0.1552,-0.1552,0,0,-0.1413,-0.1404,-0.1425,-0.1429,-0.1419,-0.1428,-0.1429,-0.1463,-0.1463,-0.1477,-0.1479,-0.1485,-0.1487,-0.1487,-0.1551,-0.1552,0,0,0,-0.1409,-0.1402,-0.1412,-0.1427,-0.1432,-0.1429,-0.143,-0.1461,-0.1465,-0.148,-0.1485,-0.1487,-0.1488,-0.1551,-0.1552,-0.1564,0,0,0,-0.1408,-0.1401,-0.1411,-0.1406,-0.1432,-0.1446,-0.1428,-0.1463,-0.1467,-0.1485,-0.1487,-0.1488,-0.1551,-0.1551,-0.1563,-0.156,0,0,0,-0.14,-0.14,-0.1403,-0.1405,-0.1418,-0.1445,-0.1451,-0.1464,-0.147,-0.1487,-0.1489,-0.155,-0.1551,-0.1562,-0.1559,-0.1572,0,0,0,-0.1391,-0.14,-0.1402,-0.1419,-0.1418,-0.1453,-0.1451,-0.1475,-0.1489,-0.1488,-0.1551,-0.1551,-0.1562,-0.1558,-0.1571,-0.1494,-0.1492,0,0,-0.1399,-0.14,-0.1413,-0.1416,-0.1448,-0.145,-0.1489,-0.1502,-0.1507,-0.1539,-0.1541,-0.1564,-0.1559,-0.1572,-0.1544,-0.154,0,0,0,-0.1415,-0.1418,-0.143,-0.1448,-0.1474,-0.1497,-0.1513,-0.1525,-0.1552,-0.1521,-0.1578,-0.1574,-0.1582,-0.1534,-0.1532,-0.1556,-0.1555,-0.1555,-0.1555,-0.1403,-0.1424,-0.1443,-0.1471,-0.1497,-0.1533,-0.1553,-0.1573,-0.1577,-0.1593,-0.1595,-0.1627,-0.1578,-0.1575,-0.1612,-0.1612,-0.1612,-0.1612,-0.1613,-0.1406,-0.1411,-0.1445,-0.1469,-0.1505,-0.1537,-0.1589,-0.1598,-0.1632,-0.1626,-0.1633,-0.1563,-0.1573,-0.1614,-0.1614,-0.1613,-0.1613,-0.1613,-0.1613,-0.1384,-0.1388,-0.1408,-0.1444,-0.1484,-0.1533,-0.1573,-0.1614,-0.1635,-0.1648,-0.1598,-0.1596,-0.1624,-0.1655,-0.1655,-0.1655,-0.1655,-0.1655,-0.1655,-0.1342,-0.1366,-0.1372,-0.1418,-0.1437,-0.1485,-0.1565,-0.1588,-0.1604,-0.1602,-0.1602,-0.1642,-0.164,-0.1627,-0.1656,-0.1656,-0.1656,-0.1656,-0.1656,-0.1297,-0.1313,-0.1318,-0.1334,-0.1382,-0.1391,-0.1491,-0.1521,-0.156,-0.1544,-0.1577,-0.1578,-0.1564,-0.1565,-0.155,-0.1558,-0.1558,-0.1558,-0.1558,-0.1256,-0.1269,-0.1256,-0.1264,-0.1295,-0.1341,-0.1325,-0.1348,-0.141,-0.1406,-0.1413,-0.1379,-0.1386,-0.1361,-0.1367,-0.1347,-0.1302,-0.1302,-0.1301,-0.1218,-0.1222,-0.1191,-0.1209,-0.1241,-0.1258,-0.1195,-0.1148,-0.1185,-0.1291,-0.1369,-0.1541,-0.1508,-0.1513,-0.1488,-0.1491,-0.1465,0,0]},{"header":{"parameterUnit":"m.s-1","parameterCategory":2,"la1":30.2992,"la2":30.254,"lo1":-89.0895,"lo2":-89.0443,"dy":0.0025,"dx":0.0025,"nx":19,"ny":19,"refTime":"2026-03-28T09:00:00:Z","depth":"2","parameterNumber":3,"parameterNumberName":"V-component_of_CURRENTS"},"data":[0,0,0,-0.0283,-0.0282,-0.0256,-0.0256,-0.0206,-0.0205,0,0,0,0,0,0,0,0,0,0,0,-0.029,-0.029,-0.0283,-0.0282,-0.0256,-0.0256,-0.0206,-0.0205,0,0,0,0,0,0,0,0,0,0,0,-0.029,-0.029,-0.029,-0.0282,-0.0256,-0.0256,-0.0206,-0.0228,0,0,0,0,0,0,0,0,0,0,-0.0255,-0.0268,-0.029,-0.029,-0.0282,-0.0256,-0.0256,-0.0229,-0.0227,-0.0216,0,-0.0216,0,-0.0213,-0.0202,-0.0202,0,0,0,-0.0274,-0.027,-0.0264,-0.029,-0.0282,-0.0256,-0.0266,-0.0228,-0.0225,-0.0212,-0.0215,-0.0214,-0.0213,-0.0202,-0.0202,-0.0185,-0.0185,0,0,-0.0276,-0.0283,-0.0266,-0.0262,-0.0281,-0.0267,-0.0265,-0.0226,-0.0225,-0.0215,-0.0213,-0.0212,-0.0202,-0.0201,-0.0185,-0.0185,0,0,0,-0.0285,-0.0284,-0.0278,-0.0264,-0.0263,-0.0266,-0.0264,-0.0226,-0.0225,-0.0212,-0.0211,-0.0202,-0.0201,-0.0185,-0.0185,-0.0236,0,0,0,-0.0286,-0.029,-0.0279,-0.0282,-0.0264,-0.0247,-0.0265,-0.0227,-0.0223,-0.0211,-0.0202,-0.0201,-0.0185,-0.0185,-0.0234,-0.0258,0,0,0,-0.0291,-0.029,-0.0289,-0.0283,-0.0275,-0.0248,-0.0244,-0.0226,-0.0223,-0.0202,-0.02,-0.0185,-0.0185,-0.0233,-0.0255,-0.0248,0,0,0,-0.0295,-0.0308,-0.0289,-0.0305,-0.0276,-0.0279,-0.0244,-0.0239,-0.0226,-0.0201,-0.0185,-0.0185,-0.0232,-0.0253,-0.0247,-0.0237,-0.0242,0,0,-0.0317,-0.0311,-0.0322,-0.0305,-0.0323,-0.0282,-0.0292,-0.0258,-0.0225,-0.0194,-0.0194,-0.0235,-0.0255,-0.0248,-0.0258,-0.0262,0,0,0,-0.0333,-0.0343,-0.0344,-0.035,-0.034,-0.0331,-0.0296,-0.0274,-0.0246,-0.022,-0.0228,-0.0239,-0.0232,-0.0224,-0.0228,-0.0187,-0.0187,-0.0187,-0.0187,-0.0368,-0.037,-0.0394,-0.0394,-0.0391,-0.0364,-0.0349,-0.031,-0.0277,-0.027,-0.0275,-0.0298,-0.0291,-0.0293,-0.0268,-0.0268,-0.0268,-0.0268,-0.0268,-0.0415,-0.0435,-0.0434,-0.0457,-0.0443,-0.0443,-0.0399,-0.037,-0.0335,-0.031,-0.0301,-0.0272,-0.03,-0.0272,-0.0272,-0.0271,-0.0271,-0.027,-0.027,-0.0445,-0.0457,-0.0468,-0.0501,-0.0514,-0.0492,-0.0494,-0.0447,-0.0382,-0.0379,-0.0337,-0.0335,-0.0322,-0.0366,-0.0366,-0.0367,-0.0367,-0.0367,-0.0367,-0.0472,-0.0486,-0.0523,-0.0548,-0.0571,-0.0582,-0.0547,-0.0516,-0.0441,-0.0388,-0.0387,-0.0331,-0.0328,-0.0326,-0.0368,-0.0368,-0.0368,-0.0368,-0.0367,-0.0514,-0.0518,-0.0577,-0.0607,-0.0659,-0.0686,-0.0644,-0.0563,-0.0505,-0.0459,-0.0379,-0.0378,-0.0353,-0.035,-0.0348,-0.0393,-0.0393,-0.0393,-0.0393,-0.0539,-0.0547,-0.0628,-0.0687,-0.0737,-0.0738,-0.0723,-0.0613,-0.0477,-0.04,-0.0399,-0.0386,-0.0384,-0.036,-0.0356,-0.0353,-0.04,-0.04,-0.04,-0.0567,-0.059,-0.0653,-0.0713,-0.0776,-0.0788,-0.0771,-0.0628,-0.0429,-0.0401,-0.0407,-0.0392,-0.037,-0.0369,-0.0328,-0.0323,-0.0317,0,0]}],[{"header":{"parameterUnit":"m.s-1","parameterCategory":2,"la1":30.2992,"la2":30.254,"lo1":-89.0895,"lo2":-89.0443,"dy":0.0025,"dx":0.0025,"nx":19,"ny":19,"refTime":"2026-03-28T09:00:00:Z","depth":"4","parameterNumber":2,"parameterNumberName":"U-component_of_CURRENTS"},"data":[0,0,0,-0.1109,-0.1111,-0.1197,-0.1198,-0.1279,-0.1279,0,0,0,0,0,0,0,0,0,0,0,-0.1082,-0.1083,-0.1109,-0.1111,-0.1197,-0.1198,-0.1279,-0.1279,0,0,0,0,0,0,0,0,0,0,0,-0.1082,-0.1083,-0.1084,-0.1111,-0.1197,-0.1198,-0.1279,-0.1222,0,0,0,0,0,0,0,0,0,0,-0.1142,-0.1123,-0.1083,-0.1084,-0.1112,-0.1197,-0.1198,-0.1219,-0.1225,-0.123,0,-0.1247,0,-0.1262,-0.1284,-0.1284,0,0,0,-0.1115,-0.1118,-0.1138,-0.1084,-0.1113,-0.1197,-0.1159,-0.1223,-0.1229,-0.1238,-0.1248,-0.1252,-0.1264,-0.1284,-0.1285,-0.1358,-0.1359,0,0,-0.111,-0.1101,-0.1133,-0.1142,-0.1139,-0.1156,-0.1162,-0.1227,-0.1237,-0.1249,-0.1254,-0.1265,-0.1285,-0.1285,-0.1358,-0.1358,0,0,0,-0.1094,-0.1098,-0.1117,-0.1138,-0.1155,-0.1159,-0.1165,-0.1235,-0.124,-0.1255,-0.1266,-0.1285,-0.1286,-0.1358,-0.1358,-0.1367,0,0,0,-0.1091,-0.1088,-0.1115,-0.1111,-0.1154,-0.12,-0.1171,-0.1236,-0.1243,-0.1265,-0.1285,-0.1287,-0.1357,-0.1358,-0.1366,-0.1357,0,0,0,-0.1078,-0.1087,-0.1097,-0.111,-0.1145,-0.12,-0.121,-0.1238,-0.125,-0.1284,-0.1287,-0.1357,-0.1358,-0.1365,-0.1356,-0.1357,0,0,0,-0.1065,-0.1084,-0.1098,-0.1128,-0.1144,-0.12,-0.1209,-0.1257,-0.1288,-0.1285,-0.1357,-0.1358,-0.1365,-0.1355,-0.1357,-0.1192,0,0,0,-0.1078,-0.1086,-0.1103,-0.1117,-0.1163,-0.1188,-0.1241,-0.1285,-0.13,-0.1334,-0.1336,-0.1367,-0.1356,-0.1357,-0.1238,0,0,0,0,-0.1101,-0.1111,-0.1129,-0.1161,-0.1201,-0.124,-0.1285,-0.1304,-0.1348,-0.1321,-0.1379,-0.1372,-0.1373,-0.1276,-0.1362,-0.1362,-0.1362,-0.1362,-0.1361,-0.1093,-0.1119,-0.1149,-0.1186,-0.1225,-0.1283,-0.1313,-0.1347,-0.1366,-0.1387,-0.1389,-0.1408,-0.1308,-0.1408,-0.1408,-0.1408,-0.1408,-0.1408,-0.1408,-0.1096,-0.1104,-0.1152,-0.119,-0.1239,-0.1287,-0.1346,-0.1367,-0.1403,-0.1411,-0.1412,-0.1305,-0.1409,-0.1409,-0.1409,-0.1409,-0.1408,-0.1408,-0.1408,-0.1068,-0.1074,-0.1114,-0.1168,-0.1224,-0.1287,-0.1313,-0.1369,-0.1402,-0.141,-0.1309,-0.1411,-0.1398,-0.1418,-0.1418,-0.1418,-0.1418,-0.1418,-0.1418,-0.1013,-0.1052,-0.1075,-0.1142,-0.1173,-0.1223,-0.13,-0.1308,-0.136,-0.1292,-0.1414,-0.1411,-0.1411,-0.1399,-0.1418,-0.1418,-0.1418,-0.1418,-0.1418,-0.0957,-0.0986,-0.1007,-0.1038,-0.1097,-0.1117,-0.1218,-0.1201,-0.1199,-0.1162,-0.1227,-0.1236,-0.1213,-0.1218,-0.1198,-0.1158,-0.1156,-0.1153,0,-0.0908,-0.0928,-0.0938,-0.0954,-0.0963,-0.1042,-0.0993,-0.1025,-0.1067,-0.1037,-0.1199,-0.1273,-0.1279,-0.1255,-0.1256,-0.1232,0,0,0,-0.0867,-0.0876,-0.0858,-0.0886,-0.0889,-0.0897,-0.0969,-0.0936,-0.1074,-0.1013,-0.1101,-0.1115,-0.1293,-0.1417,-0.1404,-0.1404,-0.1383,0,0]},{"header":{"parameterUnit":"m.s-1","parameterCategory":2,"la1":30.2992,"la2":30.254,"lo1":-89.0895,"lo2":-89.0443,"dy":0.0025,"dx":0.0025,"nx":19,"ny":19,"refTime":"2026-03-28T09:00:00:Z","depth":"4","parameterNumber":3,"parameterNumberName":"V-component_of_CURRENTS"},"data":[0,0,0,-0.0144,-0.0144,-0.0132,-0.0132,-0.0106,-0.0106,0,0,0,0,0,0,0,0,0,0,0,-0.0148,-0.0148,-0.0144,-0.0144,-0.0132,-0.0132,-0.0106,-0.0106,0,0,0,0,0,0,0,0,0,0,0,-0.0148,-0.0148,-0.0148,-0.0144,-0.0132,-0.0132,-0.0106,-0.0116,0,0,0,0,0,0,0,0,0,0,-0.0128,-0.0137,-0.0148,-0.0148,-0.0144,-0.0132,-0.0132,-0.0117,-0.0116,-0.0111,0,-0.0114,0,-0.0112,-0.0105,-0.0105,0,0,0,-0.0137,-0.0138,-0.0135,-0.0148,-0.0144,-0.0132,-0.0136,-0.0116,-0.0115,-0.0109,-0.0113,-0.0112,-0.0112,-0.0105,-0.0105,-0.012,-0.012,0,0,-0.0138,-0.0144,-0.0136,-0.0134,-0.0147,-0.0136,-0.0135,-0.0116,-0.0117,-0.0113,-0.0112,-0.0111,-0.0105,-0.0104,-0.0119,-0.012,0,0,0,-0.0144,-0.0144,-0.0141,-0.0135,-0.0136,-0.0136,-0.0135,-0.0117,-0.0117,-0.0111,-0.0111,-0.0104,-0.0104,-0.0119,-0.012,-0.0169,0,0,0,-0.0144,-0.0148,-0.0142,-0.0145,-0.0136,-0.0129,-0.0137,-0.0118,-0.0116,-0.0111,-0.0104,-0.0104,-0.0119,-0.0119,-0.0167,-0.0191,0,0,0,-0.0147,-0.0149,-0.0149,-0.0145,-0.0143,-0.0129,-0.0127,-0.0117,-0.0116,-0.0105,-0.0104,-0.0119,-0.0119,-0.0165,-0.0187,-0.0193,0,0,0,-0.015,-0.0164,-0.0149,-0.0168,-0.0143,-0.0158,-0.0127,-0.0131,-0.0126,-0.0104,-0.0119,-0.012,-0.0164,-0.0185,-0.0191,-0.0189,0,0,0,-0.0172,-0.0167,-0.0179,-0.0166,-0.0192,-0.0158,-0.0183,-0.016,-0.0134,-0.0122,-0.0123,-0.0167,-0.0187,-0.0193,-0.0234,0,0,0,0,-0.0189,-0.02,-0.0205,-0.0216,-0.0215,-0.022,-0.0196,-0.0184,-0.0174,-0.0136,-0.0169,-0.018,-0.0182,-0.0176,-0.0123,-0.0123,-0.0123,-0.0123,-0.0123,-0.0222,-0.0227,-0.0256,-0.0265,-0.0272,-0.0263,-0.0262,-0.0241,-0.0211,-0.0215,-0.0221,-0.0262,-0.0258,-0.022,-0.022,-0.0221,-0.0221,-0.0221,-0.0221,-0.0266,-0.0286,-0.0298,-0.0327,-0.0331,-0.0345,-0.0328,-0.0307,-0.0296,-0.0268,-0.0267,-0.023,-0.0226,-0.0225,-0.0224,-0.0224,-0.0223,-0.0223,-0.0223,-0.0289,-0.0301,-0.0321,-0.0367,-0.0398,-0.0397,-0.0419,-0.0389,-0.0344,-0.0348,-0.0318,-0.029,-0.0283,-0.034,-0.034,-0.034,-0.034,-0.0341,-0.0341,-0.0302,-0.0324,-0.0368,-0.041,-0.0444,-0.0473,-0.0469,-0.0457,-0.0411,-0.0376,-0.0358,-0.0301,-0.0297,-0.0289,-0.0343,-0.0343,-0.0342,-0.0342,-0.0342,-0.033,-0.034,-0.0406,-0.0447,-0.0521,-0.0538,-0.0538,-0.0493,-0.0476,-0.0437,-0.0381,-0.0378,-0.0355,-0.035,-0.0342,-0.0414,-0.0414,-0.0415,0,-0.0344,-0.0356,-0.0446,-0.0516,-0.0573,-0.058,-0.0568,-0.0541,-0.047,-0.0461,-0.0471,-0.041,-0.0406,-0.0383,-0.0378,-0.0371,0,0,0,-0.0366,-0.0391,-0.0457,-0.053,-0.0597,-0.0575,-0.0563,-0.0541,-0.0479,-0.0458,-0.0419,-0.0418,-0.0402,-0.035,-0.0308,-0.0304,-0.0288,0,0]}]]